Weather History for Blakely, GA

Change the Weather History Date:

Sunday, February 3, 2013

  Actual Average (KDHN) Record (KDHN)
Temperature  
Mean Temperature 52 °F 51 °F  
Max Temperature 68 °F 62 °F 82 °F (1957)
Min Temperature 35 °F 39 °F 12 °F (1951)
Degree Days  
Heating Degree Days 14 15  
Month to date heating degree days 45  
Since 1 July heating degree days 1261  
Growing Degree Days 2 (Base 50)    
Moisture  
Dew Point 39 °F    
Average Humidity 65    
Maximum Humidity 100    
Minimum Humidity 28    
Precipitation  
Precipitation 0.00 in 0.14 in 1.25 in (1944)
Month to date precipitation 0.42  
Year to date precipitation 5.05  
Sea Level Pressure  
Sea Level Pressure 30.15 in    
Wind  
Wind Speed 2 mph (West)    
Max Wind Speed 14 mph    
Max Gust Speed 20 mph    
Visibility 10 miles    
Events Rain    
T = Trace of Precipitation, MM = Missing Value Source: NWS Daily Summary

Daily Weather History Graph

Daily Weather History Graph

Search for Another Location

Airport:

Trip Planner

Search our weather history database for the weather conditions in past years. The results will help you decide how hot, cold, wet, or windy it might be!

Date:

Astronomy

Feb. 03, 2013 Rise Set
Actual Time 7:30 AM EST 6:16 PM EST
Civil Twilight 7:05 AM EST 6:41 PM EST
Nautical Twilight 6:36 AM EST 7:10 PM EST
Astronomical Twilight 6:07 AM EST 7:39 PM EST
Moon 12:56 AM EST (2/3) 11:55 AM EST (2/3)
Length of Visible Light 11h 36m
Length of Day
10h 45m
Waning Gibbous, 49% of the Moon is Illuminated
Feb 3
Waning Gibbous
Feb 10
New
Feb 17
First Quarter
Feb 25
Full
Mar 4
Last Quarter

Hourly Weather History & Observations

Time (EST) Temp. Dew Point Humidity Pressure Visibility Wind Dir Wind Speed Gust Speed Precip Events Conditions
12:15 AM 51.8 °F 42.8 °F 71% 30.19 in 10.0 mi Calm Calm - N/A Rain Light Rain
12:35 AM 50.0 °F 42.8 °F 76% 30.19 in 10.0 mi Calm Calm - N/A   Overcast
12:55 AM 50.0 °F 42.8 °F 76% 30.18 in 10.0 mi Calm Calm - N/A   Overcast
1:15 AM 46.4 °F 44.6 °F 93% 30.18 in 10.0 mi Calm Calm - N/A   Overcast
1:35 AM 51.8 °F 44.6 °F 76% 30.17 in 10.0 mi WSW 3.5 mph - N/A   Overcast
1:55 AM 51.8 °F 44.6 °F 76% 30.17 in 10.0 mi West 3.5 mph - N/A   Overcast
2:15 AM 51.8 °F 46.4 °F 82% 30.17 in 10.0 mi WNW 3.5 mph - N/A   Overcast
2:35 AM 51.8 °F 46.4 °F 82% 30.17 in 10.0 mi Calm Calm - N/A   Overcast
2:55 AM 51.8 °F 46.4 °F 82% 30.18 in 10.0 mi Calm Calm - N/A   Overcast
3:15 AM 51.8 °F 46.4 °F 82% 30.17 in 10.0 mi Calm Calm - N/A   Overcast
3:35 AM 51.8 °F 46.4 °F 82% 30.18 in 10.0 mi Calm Calm - N/A   Mostly Cloudy
3:55 AM 51.8 °F 46.4 °F 82% 30.18 in 10.0 mi Calm Calm - N/A   Scattered Clouds
4:15 AM 50.0 °F 46.4 °F 87% 30.18 in 10.0 mi Calm Calm - N/A   Clear
4:55 AM 50.0 °F 44.6 °F 82% 30.19 in 10.0 mi Calm Calm - N/A   Clear
5:15 AM 48.2 °F 42.8 °F 82% 30.19 in 10.0 mi NNW 3.5 mph - N/A   Clear
5:35 AM 46.4 °F 42.8 °F 87% 30.20 in 10.0 mi Calm Calm - N/A   Clear
5:55 AM 44.6 °F 41.0 °F 87% 30.20 in 10.0 mi Calm Calm - N/A   Clear
6:15 AM 42.8 °F 41.0 °F 93% 30.21 in 10.0 mi Calm Calm - N/A   Clear
6:35 AM 41.0 °F 39.2 °F 93% 30.21 in 10.0 mi Calm Calm - N/A   Clear
6:55 AM 39.2 °F 39.2 °F 100% 30.21 in 10.0 mi Calm Calm - N/A   Clear
7:15 AM 37.4 °F 37.4 °F 100% 30.21 in 10.0 mi Calm Calm - N/A   Clear
7:35 AM 37.4 °F 37.4 °F 100% 30.22 in 10.0 mi Calm Calm - N/A   Clear
7:55 AM 35.6 °F 35.6 °F 100% 30.22 in 10.0 mi Calm Calm - N/A   Clear
8:15 AM 37.4 °F 37.4 °F 100% 30.22 in 10.0 mi Calm Calm - N/A   Clear
8:35 AM 41.0 °F 41.0 °F 100% 30.22 in 10.0 mi Calm Calm - N/A   Clear
8:55 AM 44.6 °F 42.8 °F 93% 30.23 in 10.0 mi Calm Calm - N/A   Clear
9:15 AM 48.2 °F 42.8 °F 82% 30.23 in 10.0 mi Calm Calm - N/A   Clear
9:35 AM 50.0 °F 42.8 °F 76% 30.23 in 10.0 mi Calm Calm - N/A   Clear
9:55 AM 51.8 °F 41.0 °F 67% 30.22 in 10.0 mi Calm Calm - N/A   Clear
10:15 AM 53.6 °F 41.0 °F 62% 30.22 in 10.0 mi Calm Calm - N/A   Clear
10:35 AM 55.4 °F 39.2 °F 54% 30.22 in 10.0 mi West 5.8 mph - N/A   Clear
10:55 AM 57.2 °F 37.4 °F 48% 30.22 in 10.0 mi West 4.6 mph - N/A   Clear
11:15 AM 59.0 °F 37.4 °F 45% 30.21 in 10.0 mi NNW 4.6 mph - N/A   Clear
11:35 AM 59.0 °F 37.4 °F 45% 30.21 in 10.0 mi Calm Calm - N/A   Clear
11:55 AM 60.8 °F 37.4 °F 42% 30.19 in 10.0 mi NW 3.5 mph - N/A   Clear
12:15 PM 60.8 °F 37.4 °F 42% 30.18 in 10.0 mi WNW 9.2 mph 16.1 mph N/A   Clear
12:35 PM 62.6 °F 37.4 °F 39% 30.17 in 10.0 mi West 10.4 mph - N/A   Clear
12:55 PM 62.6 °F 37.4 °F 39% 30.16 in 10.0 mi West 10.4 mph - N/A   Clear
1:15 PM 64.4 °F 35.6 °F 34% 30.13 in 10.0 mi West 10.4 mph - N/A   Clear
1:35 PM 64.4 °F 35.6 °F 34% 30.12 in 10.0 mi West 10.4 mph 16.1 mph N/A   Clear
1:55 PM 64.4 °F 35.6 °F 34% 30.11 in 10.0 mi West 9.2 mph 18.4 mph N/A   Clear
2:15 PM 66.2 °F 35.6 °F 32% 30.10 in 10.0 mi WSW 10.4 mph 19.6 mph N/A   Clear
2:35 PM 66.2 °F 33.8 °F 30% 30.10 in 10.0 mi West 9.2 mph 17.3 mph N/A   Clear
2:55 PM 66.2 °F 33.8 °F 30% 30.09 in 10.0 mi West 9.2 mph 18.4 mph N/A   Clear
3:15 PM 68.0 °F 33.8 °F 28% 30.08 in 10.0 mi WNW 13.8 mph - N/A   Clear
3:35 PM 66.2 °F 33.8 °F 30% 30.08 in 10.0 mi WNW 8.1 mph 19.6 mph N/A   Clear
3:55 PM 66.2 °F 33.8 °F 30% 30.08 in 10.0 mi WNW 10.4 mph 18.4 mph N/A   Clear
4:15 PM 66.2 °F 33.8 °F 30% 30.08 in 10.0 mi West 10.4 mph - N/A   Clear
4:35 PM 66.2 °F 35.6 °F 32% 30.08 in 10.0 mi WNW 10.4 mph 17.3 mph N/A   Clear
4:55 PM 64.4 °F 35.6 °F 34% 30.08 in 10.0 mi West 8.1 mph - N/A   Clear
5:15 PM 64.4 °F 35.6 °F 34% 30.08 in 10.0 mi West 8.1 mph - N/A   Clear
5:35 PM 64.4 °F 35.6 °F 34% 30.09 in 10.0 mi West 6.9 mph - N/A   Clear
5:55 PM 62.6 °F 35.6 °F 37% 30.08 in 10.0 mi West 6.9 mph - N/A   Clear
6:15 PM 60.8 °F 35.6 °F 39% 30.08 in 10.0 mi Calm Calm - N/A   Clear
6:35 PM 60.8 °F 35.6 °F 39% 30.08 in 10.0 mi Calm Calm - N/A   Clear
6:55 PM 59.0 °F 33.8 °F 39% 30.09 in 10.0 mi Calm Calm - N/A   Clear
7:15 PM 53.6 °F 35.6 °F 51% 30.09 in 10.0 mi Calm Calm - N/A   Clear
7:35 PM 53.6 °F 35.6 °F 51% 30.10 in 10.0 mi Calm Calm - N/A   Clear
7:55 PM 51.8 °F 35.6 °F 54% 30.10 in 10.0 mi Calm Calm - N/A   Clear
8:15 PM 50.0 °F 35.6 °F 58% 30.11 in 10.0 mi Calm Calm - N/A   Clear
8:35 PM 48.2 °F 37.4 °F 66% 30.11 in 10.0 mi Calm Calm - N/A   Clear
8:55 PM 46.4 °F 39.2 °F 76% 30.11 in 10.0 mi Calm Calm - N/A   Clear
9:15 PM 44.6 °F 39.2 °F 81% 30.12 in 10.0 mi Calm Calm - N/A   Clear
9:35 PM 44.6 °F 39.2 °F 81% 30.12 in 10.0 mi Calm Calm - N/A   Clear
9:55 PM 44.6 °F 37.4 °F 76% 30.12 in 10.0 mi Calm Calm - N/A   Clear
10:15 PM 42.8 °F 37.4 °F 81% 30.12 in 10.0 mi Calm Calm - N/A   Clear
10:35 PM 42.8 °F 37.4 °F 81% 30.12 in 10.0 mi Calm Calm - N/A   Clear
10:55 PM 42.8 °F 37.4 °F 81% 30.13 in 10.0 mi Calm Calm - N/A   Clear
11:15 PM 41.0 °F 37.4 °F 87% 30.13 in 10.0 mi Calm Calm - N/A   Clear
11:35 PM 41.0 °F 37.4 °F 87% 30.13 in 10.0 mi Calm Calm - N/A   Clear
11:55 PM 41.0 °F 37.4 °F 87% 30.12 in 7.0 mi Calm Calm - N/A   Clear